[[{"header":{"parameterUnit":"m.s-1","parameterCategory":1,"la1":30.2991,"la2":30.254,"lo1":-89.0895,"lo2":-89.0444,"dy":0.0017,"dx":0.0017,"nx":28,"ny":28,"refTime":"2023-07-25T09:00:00:Z","depth":0,"parameterNumber":2,"parameterNumberName":"U-component_of_WINDS"},"data":[0,0,0,0,0,0,0,0,0,0,0,0,0,0,0,0,0,0,0,0,0,0,0,0,0,0,0,0,0,0,0,0,0,0,0,0,0,0,0,0,0,0,0,0,0,0,0,0,0,0,0,0,0,0,0,0,0,0,2.1625,2.1626,0,2.1772,2.1774,2.1775,2.1796,2.1794,2.1793,2.1791,2.1942,2.1948,2.1953,0,0,0,0,0,0,0,0,0,0,0,0,0,2.136,2.1365,2.1625,2.1626,2.1628,2.1772,2.1774,2.1776,2.1796,2.1794,2.1792,2.1791,2.1941,2.1947,2.1953,0,0,0,0,0,0,0,0,0,0,0,0,0,2.1488,2.1366,2.1624,2.1656,2.166,2.1771,2.1774,2.1776,2.1796,2.1794,2.1792,2.179,2.1939,2.1946,2.1954,2.2045,0,0,2.1978,2.1982,0,0,0,0,0,0,0,0,2.1481,2.1498,2.1649,2.1654,2.1659,2.1763,2.1736,2.1866,2.1797,2.1744,2.1791,2.1789,2.1884,2.1897,2.1929,2.2052,2.2058,2.1979,2.1984,2.1987,2.199,0,0,0,0,0,0,0,2.1472,2.1491,2.1683,2.1651,2.1657,2.1662,2.1678,2.1761,2.1824,2.1749,2.1751,2.1768,2.1887,2.1921,2.1933,2.206,2.1979,2.1986,2.1991,2.1994,2.2264,2.2266,0,0,0,0,0,0,2.1457,2.1484,2.1678,2.1687,2.1563,2.1668,2.1686,2.1732,2.1823,2.1835,2.1769,2.1768,2.1909,2.1923,2.1938,2.2049,2.1987,2.1995,2.1999,2.2261,2.2264,2.2267,0,0,0,0,0,0,2.1451,2.1474,2.1672,2.1586,2.1612,2.1675,2.1726,2.1736,2.177,2.1839,2.185,2.1793,2.1908,2.1927,2.2018,2.2054,2.1998,2.2006,2.2258,2.2262,2.2265,2.2271,0,0,0,0,0,0,2.1444,2.1472,2.1507,2.1587,2.1616,2.175,2.1729,2.174,2.1784,2.1784,2.1864,2.1875,2.1907,2.2006,2.2026,2.2064,2.2012,2.2255,2.226,2.2264,2.2268,2.2275,2.228,0,0,0,0,0,2.1434,2.1503,2.1509,2.1532,2.1662,2.1752,2.1768,2.1804,2.1787,2.1822,2.1866,2.1873,2.2047,2.2015,2.2037,2.2079,2.2253,2.2259,2.2264,2.2265,2.2273,2.228,0,0,0,0,0,0,2.1427,2.1514,2.1522,2.1619,2.1677,2.1755,2.1801,2.1811,2.1876,2.1873,2.1915,2.1933,2.2021,2.206,2.2022,2.2171,2.2149,2.2159,2.2142,2.215,2.2156,2.2145,2.2018,0,0,0,0,0,2.1436,2.1502,2.1576,2.1654,2.1683,2.1737,2.1778,2.18,2.1862,2.1887,2.1938,2.1999,2.2067,2.2111,2.2178,2.2274,2.2291,2.2314,2.232,2.2325,2.2333,2.2385,2.2396,2.2284,2.2284,2.2284,0,0,2.1457,2.1513,2.1552,2.1654,2.1702,2.1769,2.1758,2.1829,2.1879,2.1898,2.1987,2.2026,2.2096,2.219,2.2234,2.2224,2.2367,2.2332,2.2335,2.234,2.2392,2.2402,2.2411,2.2288,2.2287,2.2287,0,0,2.1528,2.1578,2.1648,2.1696,2.1769,2.1805,2.1821,2.1898,2.1924,2.2014,2.2029,2.2089,2.2206,2.2255,2.2296,2.2385,2.2393,2.2406,2.2437,2.2488,2.2496,2.2504,2.2535,2.2545,2.2414,2.2414,2.2414,0,2.1544,2.1646,2.1683,2.1753,2.1797,2.1818,2.1888,2.1934,2.2025,2.2055,2.2043,2.219,2.2239,2.2343,2.2365,2.2398,2.2417,2.2396,2.2492,2.25,2.2508,2.2538,2.2549,2.2415,2.2414,2.2414,2.2414,0,2.1661,2.1731,2.1779,2.1866,2.1916,2.1986,2.2033,2.2079,2.2097,2.2133,2.2223,2.2283,2.2361,2.2388,2.2407,2.2496,2.2487,2.2484,2.2462,2.2519,2.2547,2.2559,2.2416,2.2416,2.2415,2.2415,0,0,2.1731,2.1837,2.1854,2.1893,2.1975,2.203,2.2101,2.2178,2.2216,2.2278,2.2338,2.2437,2.2433,2.2479,2.2503,2.2548,2.2613,2.2539,2.2541,2.2549,2.2713,2.2714,2.2726,2.2619,2.2622,2.2624,2.2706,0,2.181,2.1937,2.1973,2.208,2.2144,2.2165,2.2227,2.2284,2.2319,2.2379,2.2419,2.2488,2.2479,2.2507,2.2552,2.2595,2.2646,2.259,2.2675,2.2677,2.2655,2.2741,2.2743,2.2818,2.2718,2.272,2.2721,0,2.192,2.1983,2.2097,2.217,2.2198,2.2253,2.2326,2.2383,2.2448,2.2471,2.2521,2.2542,2.2616,2.2592,2.2694,2.2655,2.2692,2.2719,2.2723,2.2731,2.2701,2.275,2.2843,2.2854,2.2739,2.2738,2.2737,0,2.1957,2.2071,2.2154,2.2187,2.2275,2.2312,2.2351,2.2413,2.2457,2.2521,2.2549,2.2621,2.2659,2.2714,2.2753,2.2732,2.2852,2.2831,2.2872,2.2871,2.2895,2.2893,2.2994,2.2922,2.2922,2.2922,2.2921,0,2.2041,2.2109,2.2171,2.2222,2.2299,2.2339,2.2414,2.2453,2.2509,2.2567,2.2589,2.2643,2.2692,2.2753,2.2784,2.2863,2.2881,2.2901,2.2908,2.2898,2.2895,2.2922,2.2917,2.2925,2.2924,2.2923,2.2923,0,2.2094,2.2139,2.223,2.2306,2.2326,2.2379,2.2444,2.2493,2.253,2.2603,2.2623,2.268,2.2753,2.2797,2.2889,2.291,2.2997,2.3003,2.2975,2.2978,2.3016,2.3011,2.3136,2.3154,2.3071,2.3072,2.3073,0,2.2144,2.2197,2.2278,2.2318,2.2357,2.2422,2.2466,2.2508,2.2553,2.263,2.267,2.2744,2.2805,2.292,2.297,2.304,2.3047,2.3086,2.3058,2.3045,2.3046,2.3041,2.3046,2.309,2.3091,2.3091,2.3092,0,2.2227,2.2246,2.2309,2.238,2.2432,2.249,2.2548,2.258,2.2631,2.2681,2.2755,2.2802,2.2896,2.2968,2.3043,2.3082,2.3095,2.3101,2.3113,2.3103,2.3084,2.3093,2.2986,2.3097,2.3097,2.3096,2.3096,2.3096,2.2279,2.2327,2.2391,2.246,2.2508,2.2561,2.2611,2.2653,2.2716,2.2795,2.2816,2.2893,2.2956,2.3058,2.3098,2.3159,2.3153,2.3173,2.3177,2.3181,2.3181,2.3075,2.3173,2.3173,2.3173,2.3173,2.3173,0,2.2361,2.2404,2.2467,2.2547,2.2601,2.2609,2.2673,2.2718,2.2785,2.2843,2.2903,2.2987,2.3058,2.3113,2.3186,2.3223,2.3231,2.3241,2.3238,2.3246,2.3183,2.3163,2.3233,2.3233,2.3233,2.3233,2.3233,2.3233,2.2411,2.2491,2.2518,2.2622,2.2664,2.2739,2.2775,2.2824,2.287,2.2963,2.3022,2.3057,2.3114,2.3191,2.3255,2.327,2.3295,2.3303,2.3318,2.3258,2.3251,2.3244,2.3226,2.3308,2.3309,2.3377,2.3377,2.3378]},{"header":{"parameterUnit":"m.s-1","parameterCategory":1,"la1":30.2991,"la2":30.254,"lo1":-89.0895,"lo2":-89.0444,"dy":0.0017,"dx":0.0017,"nx":28,"ny":28,"refTime":"2023-07-25T09:00:00:Z","depth":0,"parameterNumber":3,"parameterNumberName":"V-component_of_WINDS"},"data":[0,0,0,0,0,0,0,0,0,0,0,0,0,0,0,0,0,0,0,0,0,0,0,0,0,0,0,0,0,0,0,0,0,0,0,0,0,0,0,0,0,0,0,0,0,0,0,0,0,0,0,0,0,0,0,0,0,0,2.2076,2.2076,0,2.203,2.2029,2.2029,2.1958,2.1957,2.1955,2.1954,2.1907,2.1907,2.1906,0,0,0,0,0,0,0,0,0,0,0,0,0,2.2104,2.2104,2.2077,2.2076,2.2075,2.203,2.2029,2.2029,2.1958,2.1957,2.1955,2.1954,2.1907,2.1907,2.1906,0,0,0,0,0,0,0,0,0,0,0,0,0,2.2078,2.2104,2.2077,2.2035,2.203,2.203,2.2029,2.2028,2.1958,2.1956,2.1955,2.1953,2.1907,2.1907,2.1906,2.1943,0,0,2.1906,2.1906,0,0,0,0,0,0,0,0,2.208,2.2077,2.2041,2.2038,2.2033,2.1998,2.2021,2.2,2.1959,2.1986,2.1954,2.1952,2.1938,2.1936,2.1931,2.1941,2.1939,2.1906,2.1906,2.1906,2.1906,0,0,0,0,0,0,0,2.2082,2.2079,2.2058,2.2041,2.2036,2.2018,2.2012,2.2017,2.1973,2.1983,2.1978,2.1973,2.1936,2.1931,2.1929,2.1938,2.1906,2.1906,2.1906,2.1906,2.1974,2.1976,0,0,0,0,0,0,2.209,2.2081,2.2059,2.2057,2.2052,2.2019,2.2013,2.2011,2.1973,2.1965,2.1975,2.197,2.1932,2.193,2.1927,2.1967,2.1906,2.1906,2.1906,2.1972,2.1975,2.1977,0,0,0,0,0,0,2.2091,2.2088,2.2061,2.2067,2.2062,2.2021,2.2019,2.2011,2.2006,2.1967,2.1959,2.1979,2.1931,2.1928,2.1939,2.1964,2.1906,2.1906,2.197,2.1973,2.1976,2.2047,0,0,0,0,0,0,2.2092,2.2089,2.2103,2.2068,2.2062,2.2075,2.2021,2.2011,2.2006,2.2,2.1968,2.1961,2.1929,2.194,2.1939,2.1963,2.1905,2.1968,2.1972,2.1975,2.2042,2.2052,2.206,0,0,0,0,0,2.2093,2.2125,2.2104,2.2102,2.2079,2.2076,2.2073,2.2036,2.2009,2.2022,2.1996,2.1962,2.1962,2.1942,2.194,2.1964,2.1966,2.1971,2.1975,2.2038,2.205,2.206,0,0,0,0,0,0,2.2165,2.212,2.2096,2.2118,2.2101,2.2064,2.208,2.205,2.204,2.2035,2.1989,2.1982,2.1999,2.1983,2.1962,2.1997,2.1959,2.1963,2.2007,2.2018,2.2027,2.203,2.1905,0,0,0,0,0,2.2183,2.2185,2.2146,2.2169,2.2162,2.2123,2.212,2.2093,2.2073,2.2066,2.2041,2.2024,2.202,2.2018,2.2012,2.2039,2.2031,2.2055,2.2064,2.2072,2.2076,2.2087,2.2097,2.1991,2.1991,2.1991,0,0,2.2221,2.2197,2.2201,2.2183,2.2166,2.2169,2.2117,2.2122,2.2123,2.2067,2.2076,2.2057,2.2035,2.2054,2.2062,2.2041,2.2103,2.2077,2.2083,2.2083,2.2093,2.2103,2.2112,2.1994,2.1993,2.1993,0,0,2.2291,2.2274,2.229,2.2275,2.2251,2.2224,2.2229,2.2196,2.2181,2.219,2.2147,2.2148,2.2142,2.2127,2.2119,2.2182,2.215,2.2182,2.2228,2.224,2.2249,2.2256,2.2277,2.2286,2.2186,2.2186,2.2186,0,2.2341,2.2343,2.2303,2.231,2.2303,2.2252,2.2268,2.2255,2.2231,2.2227,2.2204,2.2195,2.2176,2.219,2.2206,2.2201,2.2204,2.2185,2.2251,2.2257,2.2264,2.2283,2.2292,2.219,2.219,2.2189,2.2189,0,2.2406,2.2408,2.2424,2.2401,2.2396,2.2408,2.2369,2.2368,2.2341,2.2317,2.2325,2.2301,2.2289,2.229,2.2264,2.23,2.2288,2.2259,2.2219,2.2278,2.2296,2.2303,2.2196,2.2194,2.2193,2.2192,0,0,2.252,2.2474,2.248,2.2469,2.2438,2.2439,2.2448,2.2435,2.2435,2.242,2.2426,2.2421,2.2394,2.2384,2.2356,2.2367,2.2417,2.2335,2.2334,2.235,2.2454,2.2475,2.2485,2.2395,2.2396,2.2397,2.2455,0,2.2583,2.2596,2.2559,2.2581,2.2582,2.2533,2.2541,2.2523,2.25,2.2497,2.2472,2.2469,2.2433,2.2427,2.2435,2.2409,2.2437,2.2404,2.2399,2.2399,2.2406,2.2494,2.2517,2.2573,2.2462,2.2463,2.2464,0,2.2659,2.2647,2.2669,2.2636,2.2635,2.2643,2.2627,2.2625,2.2603,2.2586,2.2575,2.2542,2.2548,2.251,2.2516,2.2495,2.2491,2.2478,2.2479,2.2476,2.2435,2.2493,2.259,2.2598,2.2475,2.2474,2.2473,0,2.2739,2.2728,2.2739,2.2731,2.2693,2.27,2.2684,2.266,2.2655,2.2641,2.2637,2.2625,2.2618,2.2609,2.2573,2.2549,2.2583,2.2543,2.2568,2.2569,2.2577,2.2577,2.2674,2.2576,2.2576,2.2576,2.2576,0,2.2813,2.2828,2.2774,2.2782,2.2797,2.2754,2.277,2.275,2.2729,2.273,2.2687,2.269,2.2642,2.2639,2.2611,2.262,2.2617,2.2603,2.2595,2.2606,2.2608,2.2602,2.2597,2.2578,2.2578,2.2577,2.2577,0,2.2904,2.2869,2.2878,2.2841,2.2832,2.2845,2.2813,2.2818,2.2792,2.2795,2.2793,2.2752,2.2746,2.2709,2.2695,2.2676,2.2695,2.2679,2.2702,2.2697,2.2724,2.2721,2.2819,2.2829,2.2727,2.2728,2.2729,0,2.2953,2.2964,2.2928,2.2926,2.2912,2.2909,2.2903,2.2862,2.2857,2.2832,2.2839,2.283,2.2819,2.2812,2.2781,2.2769,2.2753,2.2788,2.2751,2.2761,2.2752,2.2751,2.2751,2.2796,2.2797,2.2798,2.2799,0,2.3044,2.3026,2.3019,2.3006,2.2999,2.2987,2.2972,2.2973,2.2926,2.2923,2.2916,2.2908,2.2893,2.2884,2.2866,2.2849,2.2816,2.2811,2.2816,2.2827,2.2839,2.2832,2.2723,2.2809,2.2808,2.2807,2.2807,2.2806,2.3114,2.3121,2.3096,2.309,2.3074,2.3061,2.3063,2.3037,2.3031,2.3015,2.2991,2.2987,2.2963,2.2936,2.2922,2.2918,2.2899,2.2907,2.2908,2.2911,2.2916,2.2841,2.2915,2.2914,2.2914,2.2914,2.2914,0,2.3202,2.3183,2.3178,2.3158,2.3152,2.3122,2.3103,2.31,2.3098,2.3078,2.3069,2.3061,2.3051,2.3019,2.3006,2.3008,2.2993,2.3006,2.3005,2.3001,2.2934,2.2931,2.3019,2.3019,2.3019,2.3019,2.3019,2.3019,2.3247,2.3255,2.3235,2.3235,2.3216,2.3212,2.3204,2.3191,2.3175,2.3167,2.3159,2.3138,2.3114,2.3098,2.3087,2.3078,2.3074,2.3093,2.3078,2.3016,2.3006,2.2997,2.2993,2.3093,2.3093,2.3145,2.3146,2.3146]}]]